+ View the NASA Portal
+ Center for Near-Earth Object Studies
IMPORTANT:
The SSD Announcement email list is now available. Major changes are coming in the near future, including possible hostname and/or URL changes. To be notified of such changes, subscribe to this email list.
Please visit
this page
for more details.
Don't show this message again
JPL Small-Body Database Browser
Search:
[
help
]
117048 (2004 JT32)
Classification:
Main-belt Asteroid
SPK-ID:
2117048
[
Ephemeris
|
Orbit Diagram
|
Orbital Elements
|
Mission Design
|
Physical Parameters
|
Discovery Circumstances
|
Close-Approach Data
]
[ show orbit diagram ]
Orbital Elements at Epoch 2458600.5 (2019-Apr-27.0) TDB
Reference:
JPL 16
(heliocentric ecliptic J2000)
Element
Value
Uncertainty (1-sigma)
Units
e
.102586384958443
4.5233e-08
a
2.724880398996788
2.4277e-08
au
q
2.445344769419588
1.2584e-07
au
i
5.944558888147635
5.0959e-06
deg
node
121.9069484284513
4.9412e-05
deg
peri
185.7479262973044
5.5994e-05
deg
M
51.96091774219495
2.4896e-05
deg
t
p
2458363.365956645976
(2018-Sep-01.86595665)
0.00011406
TDB
period
1642.932021158763
4.50
2.1956e-05
6.011e-08
d
yr
n
.2191204476896685
2.9283e-09
deg/d
Q
3.004416028573988
2.6768e-08
au
Orbit Determination Parameters
# obs. used (total)
361
data-arc span
6581 days (18.02 yr)
first obs. used
2001-11-19
last obs. used
2019-11-26
planetary ephem.
DE431
SB-pert. ephem.
SB431-N16
condition code
0
norm. resid. RMS
.58504
source
ORB
producer
Otto Matic
solution date
2019-Dec-04 10:59:36
Additional Information
Earth MOID
= 1.42975 au
Jupiter MOID
= 2.20937 au
T_jup
= 3.342
[ show covariance matrix ]
[
Ephemeris
|
Orbit Diagram
|
Orbital Elements
|
Mission Design
|
Physical Parameters
|
Discovery Circumstances
|
Close-Approach Data
]
Physical Parameter Table
Parameter
Symbol
Value
Units
Sigma
Reference
Notes
absolute magnitude
H
15.6
n/a
MPO453641
117048 (2004 JT32)
Discovered 2004-May-15 by LINEAR at Socorro
Reference:
20051019/Numbers.arc
Last Updated:
2005-10-26
[ show close-approach data ]
[
Ephemeris
|
Orbit Diagram
|
Orbital Elements
|
Mission Design
|
Physical Parameters
|
Discovery Circumstances
|
Close-Approach Data
]
2019-Dec-11 17:10 UT
(server date/time)
Site Manager:
Ryan S. Park
Webmaster
:
Alan B. Chamberlin